Location: Cornospital
(48.0620°N, 3.3837°W)
Time: 16:51:32
(UTC+00:00)

MetOp-B - Pass Details

Date: 17 June 2021
Orbit: 820 x 821 km, 98.7° (Epoch: 31 July)

Event Time Altitude Azimuth Distance (km) Brightness Sun altitude
Exits shadow 20:48:54 - 158° (SSE) 3,040 6.5 -5.0°
Reaches altitude 10° 20:50:29 10° 157° (SSE) 2,411 6.0 -5.2°
Maximum altitude 20:55:49 77° 72° (ENE) 847 4.2 -5.8°
Drops below altitude 10° 21:01:11 10° 348° (NNW) 2,429 7.6 -6.4°
Sets 21:03:33 0° 347° (NNW) 3,366 8.5 -6.7°
